User: anonymous   Login
Location: Asheville, NC
(35.6000°N, 82.5500°W)
Time: 20:59:14
(UTC-04:00)
Language:

VELOX 1 - Orbit

View from above orbital plane
View from above orbital plane
View from above satellite
View from above satellite

Ground track
Ground track

The orbit data is extracted from the following two-line orbital elements,

1 40057U 14034E   18198.44665121  .00000232  00000-0  40212-4 0  9994
2 40057  98.2066 310.0210 0010001 226.1896 133.8490 14.77451587218112
Epoch (UTC): 17 July 2018 10:43:10
Eccentricity: 0.0010001
inclination: 98.2066°
perigee height: 630 km
apogee height: 644 km
right ascension of ascending node: 310.0210°
argument of perigee: 226.1896°
revolutions per day: 14.77451587
mean anomaly at epoch: 133.8490°
orbit number at epoch: 21811

The dashed part of the orbit path shows where the satellite is in the earth's shadow,  

DLR